CMP159 MPTO-SEQM

Flight info

Callsign CMP159
Flight time 1h 28m
Altitude 37000
Route TBG UM674 QIT
Aircraft B738/M-SDE2E3FGHIRWXY/LB1

Departure

Time 2026-05-05 22:41
Airport Tocumen International Airport (MPTO)

Arrival

Time 2026-05-06 00:09
Airport Mariscal Sucre International Airport (SEQM)
Time Latitude Longitude Altitude Speed Heading
2026-05-05 22:14 9.07071 -79.38610 143 ft 0 kts 121°
2026-05-05 22:22 9.07072 -79.38610 143 ft 0 kts 121°
2026-05-05 22:34 9.07082 -79.38631 143 ft 4 kts 106°
2026-05-05 22:34 9.07086 -79.38657 143 ft 4 kts 81°
2026-05-05 22:34 9.07083 -79.38670 143 ft 1 kts 73°
2026-05-05 22:37 9.07084 -79.38669 143 ft 3 kts 67°
2026-05-05 22:37 9.07141 -79.38627 143 ft 12 kts 27°
2026-05-05 22:37 9.07214 -79.38586 143 ft 12 kts 40°
2026-05-05 22:37 9.07212 -79.38512 143 ft 12 kts 120°
2026-05-05 22:38 9.07166 -79.38434 143 ft 14 kts 121°
2026-05-05 22:38 9.07154 -79.38366 143 ft 11 kts 62°
2026-05-05 22:38 9.07187 -79.38297 143 ft 11 kts 93°
2026-05-05 22:38 9.07152 -79.38226 143 ft 11 kts 120°
2026-05-05 22:39 9.07116 -79.38158 143 ft 11 kts 114°
2026-05-05 22:39 9.07138 -79.38095 143 ft 11 kts 28°
2026-05-05 22:39 9.07195 -79.38051 143 ft 10 kts 55°
2026-05-05 22:39 9.07186 -79.37985 143 ft 10 kts 120°
2026-05-05 22:40 9.07144 -79.37932 143 ft 10 kts 152°
2026-05-05 22:40 9.07081 -79.37942 142 ft 10 kts 208°
2026-05-05 22:40 9.07013 -79.37981 142 ft 16 kts 209°
2026-05-05 22:40 9.06719 -79.38147 141 ft 86 kts 209°
2026-05-05 22:41 9.05995 -79.38558 147 ft 150 kts 209°
2026-05-05 22:41 9.05021 -79.39140 615 ft 165 kts 210°
2026-05-05 22:41 9.03993 -79.39726 1257 ft 176 kts 210°
2026-05-05 22:41 9.02915 -79.40327 1997 ft 178 kts 209°
2026-05-05 22:42 9.01747 -79.40967 2311 ft 207 kts 209°
2026-05-05 22:42 9.00404 -79.41711 2526 ft 232 kts 209°
2026-05-05 22:42 8.98925 -79.42539 2773 ft 252 kts 210°
2026-05-05 22:42 8.97327 -79.43444 3091 ft 273 kts 210°
2026-05-05 22:43 8.95795 -79.44317 3733 ft 277 kts 210°
2026-05-05 22:43 8.94128 -79.45273 4582 ft 279 kts 210°
2026-05-05 22:43 8.92412 -79.46257 5312 ft 283 kts 210°
2026-05-05 22:43 8.90733 -79.47223 6063 ft 286 kts 210°
2026-05-05 22:44 8.89073 -79.48178 6764 ft 289 kts 210°
2026-05-05 22:44 8.87382 -79.49302 7501 ft 292 kts 218°
2026-05-05 22:44 8.85787 -79.50594 8291 ft 295 kts 219°
2026-05-05 22:44 8.84205 -79.51891 9078 ft 299 kts 218°
2026-05-05 22:45 8.82546 -79.53227 9877 ft 302 kts 218°
2026-05-05 22:45 8.80874 -79.54556 10449 ft 314 kts 217°
2026-05-05 22:45 8.78932 -79.55722 10621 ft 338 kts 198°
2026-05-05 22:45 8.76607 -79.56063 11064 ft 347 kts 176°
2026-05-05 22:46 8.74196 -79.55831 11761 ft 350 kts 172°
2026-05-05 22:46 8.71767 -79.55517 12514 ft 353 kts 171°
2026-05-05 22:46 8.69317 -79.55183 13275 ft 357 kts 171°
2026-05-05 22:46 8.66841 -79.54851 14065 ft 360 kts 171°
2026-05-05 22:47 8.64337 -79.54525 14718 ft 365 kts 171°
2026-05-05 22:47 8.61806 -79.54206 15404 ft 368 kts 171°
2026-05-05 22:47 8.59248 -79.53891 16094 ft 371 kts 171°
2026-05-05 22:47 8.56675 -79.53580 16769 ft 375 kts 171°
2026-05-05 22:48 8.54075 -79.53268 17430 ft 378 kts 171°
2026-05-05 22:48 8.51442 -79.52954 18083 ft 382 kts 171°
2026-05-05 22:48 8.48790 -79.52639 18629 ft 386 kts 171°
2026-05-05 22:48 8.46139 -79.52324 19153 ft 390 kts 171°
2026-05-05 22:49 8.43426 -79.52003 19681 ft 394 kts 171°
2026-05-05 22:49 8.40690 -79.51679 20208 ft 398 kts 172°
2026-05-05 22:49 8.37920 -79.51351 20728 ft 402 kts 172°
2026-05-05 22:49 8.35131 -79.51020 21244 ft 405 kts 172°
2026-05-05 22:50 8.32314 -79.50687 21746 ft 409 kts 172°
2026-05-05 22:50 8.29474 -79.50351 22242 ft 413 kts 172°
2026-05-05 22:50 8.26605 -79.50011 22726 ft 417 kts 172°
2026-05-05 22:50 8.23704 -79.49668 23207 ft 420 kts 172°
2026-05-05 22:51 8.20787 -79.49323 23634 ft 424 kts 172°
2026-05-05 22:51 8.17839 -79.48974 24042 ft 426 kts 172°
2026-05-05 22:51 8.14883 -79.48624 24467 ft 428 kts 172°
2026-05-05 22:51 8.11913 -79.48273 24880 ft 431 kts 172°
2026-05-05 22:52 8.08928 -79.47920 25277 ft 433 kts 172°
2026-05-05 22:52 8.05963 -79.47569 25666 ft 436 kts 172°
2026-05-05 22:52 8.02940 -79.47212 26060 ft 438 kts 172°
2026-05-05 22:52 7.99904 -79.46852 26447 ft 441 kts 172°
2026-05-05 22:53 7.96846 -79.46491 26828 ft 443 kts 172°
2026-05-05 22:53 7.93775 -79.46128 27204 ft 445 kts 172°
2026-05-05 22:53 7.90686 -79.45763 27572 ft 448 kts 172°
2026-05-05 22:53 7.87580 -79.45396 27932 ft 450 kts 172°
2026-05-05 22:54 7.84459 -79.45027 28285 ft 452 kts 172°
2026-05-05 22:54 7.81321 -79.44656 28662 ft 454 kts 172°
2026-05-05 22:54 7.78216 -79.44290 29044 ft 455 kts 172°
2026-05-05 22:54 7.75065 -79.43917 29375 ft 458 kts 172°
2026-05-05 22:55 7.71895 -79.43543 29681 ft 460 kts 172°
2026-05-05 22:55 7.68700 -79.43165 29978 ft 463 kts 172°
2026-05-05 22:55 7.65493 -79.42787 30237 ft 465 kts 172°
2026-05-05 22:55 7.62274 -79.42407 30495 ft 467 kts 172°
2026-05-05 22:56 7.59036 -79.42025 30768 ft 469 kts 172°
2026-05-05 22:56 7.55794 -79.41642 31114 ft 468 kts 172°
2026-05-05 22:56 7.52563 -79.41261 31502 ft 467 kts 172°
2026-05-05 22:56 7.49334 -79.40881 31872 ft 466 kts 172°
2026-05-05 22:57 7.46109 -79.40500 32215 ft 467 kts 172°
2026-05-05 22:57 7.42887 -79.40120 32589 ft 466 kts 172°
2026-05-05 22:57 7.39668 -79.39741 33002 ft 465 kts 172°
2026-05-05 22:57 7.36449 -79.39361 33391 ft 464 kts 172°
2026-05-05 22:58 7.33236 -79.38982 33738 ft 465 kts 172°
2026-05-05 22:58 7.30026 -79.38603 34074 ft 465 kts 172°
2026-05-05 22:58 7.26862 -79.38229 34425 ft 463 kts 172°
2026-05-05 22:58 7.23668 -79.37851 34810 ft 461 kts 172°
2026-05-05 22:59 7.20481 -79.37473 35173 ft 460 kts 172°
2026-05-05 22:59 7.17306 -79.37096 35508 ft 459 kts 172°
2026-05-05 22:59 7.14132 -79.36719 35841 ft 458 kts 172°
2026-05-05 22:59 7.10971 -79.36344 36193 ft 457 kts 172°
2026-05-05 23:00 7.05729 -79.35722 36776 ft 455 kts 172°
2026-05-05 23:00 6.99389 -79.34969 36875 ft 462 kts 172°
2026-05-05 23:01 6.93032 -79.34216 36860 ft 457 kts 172°
2026-05-05 23:01 6.86759 -79.33473 36873 ft 453 kts 172°
2026-05-05 23:02 6.80498 -79.32731 36876 ft 453 kts 172°
2026-05-05 23:02 6.74229 -79.31988 36874 ft 453 kts 172°
2026-05-05 23:03 6.67998 -79.31250 36871 ft 454 kts 172°
2026-05-05 23:03 6.61712 -79.30506 36875 ft 455 kts 172°
2026-05-05 23:04 6.55418 -79.29761 36876 ft 455 kts 172°
2026-05-05 23:04 6.49115 -79.29015 36875 ft 456 kts 172°
2026-05-05 23:05 6.42812 -79.28270 36872 ft 456 kts 172°
2026-05-05 23:05 6.36502 -79.27523 36870 ft 457 kts 172°
2026-05-05 23:06 6.30195 -79.26777 36870 ft 456 kts 172°
2026-05-05 23:06 6.23881 -79.26031 36872 ft 456 kts 172°
2026-05-05 23:07 6.17581 -79.25286 36872 ft 456 kts 172°
2026-05-05 23:07 6.11275 -79.24541 36869 ft 455 kts 172°
2026-05-05 23:08 6.04983 -79.23798 36872 ft 455 kts 172°
2026-05-05 23:08 5.98730 -79.23059 36871 ft 455 kts 172°
2026-05-05 23:09 5.92446 -79.22318 36871 ft 454 kts 172°
2026-05-05 23:09 5.86170 -79.21587 36871 ft 454 kts 172°
2026-05-05 23:10 5.79893 -79.20860 36871 ft 453 kts 172°
2026-05-05 23:10 5.73622 -79.20132 36871 ft 453 kts 172°
2026-05-05 23:11 5.67359 -79.19405 36871 ft 453 kts 172°
2026-05-05 23:11 5.61101 -79.18678 36871 ft 453 kts 172°
2026-05-05 23:12 5.54875 -79.17954 36874 ft 453 kts 172°
2026-05-05 23:12 5.48608 -79.17226 36875 ft 453 kts 172°
2026-05-05 23:13 5.42346 -79.16499 36874 ft 453 kts 172°
2026-05-05 23:13 5.36084 -79.15772 36874 ft 453 kts 172°
2026-05-05 23:14 5.29853 -79.15049 36877 ft 453 kts 172°
2026-05-05 23:14 5.23596 -79.14323 36873 ft 453 kts 173°
2026-05-05 23:15 5.17288 -79.13591 36878 ft 453 kts 173°
2026-05-05 23:15 5.11053 -79.12868 36877 ft 453 kts 173°
2026-05-05 23:16 5.04771 -79.12140 36877 ft 454 kts 173°
2026-05-05 23:16 4.98489 -79.11411 36877 ft 454 kts 173°
2026-05-05 23:17 4.92251 -79.10688 36877 ft 454 kts 173°
2026-05-05 23:17 4.85966 -79.09960 36874 ft 454 kts 172°
2026-05-05 23:18 4.79686 -79.09232 36877 ft 454 kts 172°
2026-05-05 23:18 4.73406 -79.08504 36876 ft 454 kts 172°
2026-05-05 23:19 4.67125 -79.07777 36880 ft 454 kts 172°
2026-05-05 23:19 4.60882 -79.07054 36879 ft 454 kts 172°
2026-05-05 23:20 4.54613 -79.06328 36879 ft 454 kts 172°
2026-05-05 23:20 4.48340 -79.05602 36881 ft 453 kts 172°
2026-05-05 23:21 4.42080 -79.04877 36881 ft 453 kts 172°
2026-05-05 23:21 4.35817 -79.04152 36882 ft 452 kts 172°
2026-05-05 23:22 4.29559 -79.03428 36882 ft 452 kts 172°
2026-05-05 23:22 4.23318 -79.02706 36882 ft 452 kts 172°
2026-05-05 23:23 4.17073 -79.01984 36885 ft 451 kts 172°
2026-05-05 23:23 4.10837 -79.01262 36883 ft 451 kts 172°
2026-05-05 23:24 4.04600 -79.00541 36883 ft 450 kts 173°
2026-05-05 23:24 3.98369 -78.99820 36881 ft 450 kts 172°
2026-05-05 23:25 3.92182 -78.99105 36883 ft 450 kts 173°
2026-05-05 23:25 3.85960 -78.98386 36884 ft 450 kts 172°
2026-05-05 23:26 3.79742 -78.97667 36889 ft 450 kts 172°
2026-05-05 23:26 3.73523 -78.96949 36883 ft 450 kts 172°
2026-05-05 23:27 3.67314 -78.96231 36889 ft 449 kts 173°
2026-05-05 23:27 3.61111 -78.95515 36883 ft 449 kts 172°
2026-05-05 23:28 3.54905 -78.94798 36889 ft 448 kts 172°
2026-05-05 23:28 3.48712 -78.94083 36885 ft 448 kts 173°
2026-05-05 23:29 3.42557 -78.93372 36892 ft 447 kts 172°
2026-05-05 23:29 3.36367 -78.92657 36892 ft 447 kts 172°
2026-05-05 23:30 3.30184 -78.91943 36893 ft 447 kts 172°
2026-05-05 23:30 3.24044 -78.91234 36888 ft 447 kts 172°
2026-05-05 23:31 3.17864 -78.90521 36888 ft 447 kts 172°
2026-05-05 23:31 3.11681 -78.89808 36886 ft 447 kts 173°
2026-05-05 23:32 3.05500 -78.89094 36893 ft 447 kts 173°
2026-05-05 23:32 2.99309 -78.88380 36885 ft 447 kts 172°
2026-05-05 23:33 2.93167 -78.87672 36891 ft 447 kts 172°
2026-05-05 23:33 2.86971 -78.86958 36893 ft 447 kts 173°
2026-05-05 23:34 2.80793 -78.86245 36892 ft 447 kts 173°
2026-05-05 23:34 2.74612 -78.85532 36891 ft 446 kts 172°
2026-05-05 23:35 2.68439 -78.84821 36890 ft 446 kts 172°
2026-05-05 23:35 2.62301 -78.84113 36893 ft 446 kts 173°
2026-05-05 23:36 2.56123 -78.83400 36892 ft 446 kts 172°
2026-05-05 23:36 2.49957 -78.82689 36892 ft 446 kts 173°
2026-05-05 23:37 2.43791 -78.81978 36897 ft 445 kts 173°
2026-05-05 23:37 2.37632 -78.81268 36890 ft 445 kts 172°
2026-05-05 23:38 2.31524 -78.80565 36896 ft 445 kts 173°
2026-05-05 23:38 2.25374 -78.79856 36896 ft 444 kts 172°
2026-05-05 23:39 2.19220 -78.79146 36899 ft 446 kts 173°
2026-05-05 23:39 2.13035 -78.78433 36903 ft 449 kts 172°
2026-05-05 23:40 2.06817 -78.77717 36899 ft 451 kts 173°
2026-05-05 23:40 2.00578 -78.76998 36899 ft 452 kts 173°
2026-05-05 23:41 1.94327 -78.76278 36902 ft 452 kts 172°
2026-05-05 23:41 1.88078 -78.75558 36901 ft 451 kts 173°
2026-05-05 23:42 1.81856 -78.74841 36877 ft 450 kts 173°
2026-05-05 23:42 1.75650 -78.74091 36882 ft 448 kts 172°
2026-05-05 23:43 1.69470 -78.73316 36885 ft 447 kts 172°
2026-05-05 23:43 1.63338 -78.72550 36895 ft 446 kts 172°
2026-05-05 23:44 1.57190 -78.71787 36910 ft 445 kts 172°
2026-05-05 23:44 1.51050 -78.71026 36921 ft 445 kts 172°
2026-05-05 23:45 1.44899 -78.70263 36945 ft 445 kts 172°
2026-05-05 23:45 1.38741 -78.69500 36954 ft 447 kts 172°
2026-05-05 23:46 1.32559 -78.68733 36978 ft 448 kts 172°
2026-05-05 23:46 1.26356 -78.67937 36974 ft 450 kts 171°
2026-05-05 23:47 1.21167 -78.67259 36697 ft 454 kts 171°
2026-05-05 23:47 1.18051 -78.66853 36434 ft 448 kts 171°
2026-05-05 23:47 1.13989 -78.66325 35932 ft 441 kts 171°
2026-05-05 23:48 1.11939 -78.66059 35671 ft 439 kts 170°
2026-05-05 23:48 1.08920 -78.65668 35284 ft 435 kts 170°
2026-05-05 23:48 1.05927 -78.65280 34902 ft 432 kts 170°
2026-05-05 23:48 1.02950 -78.64894 34541 ft 429 kts 169°
2026-05-05 23:49 0.99992 -78.64511 34162 ft 427 kts 169°
2026-05-05 23:49 0.97093 -78.64135 33723 ft 425 kts 169°
2026-05-05 23:49 0.94170 -78.63756 33314 ft 421 kts 169°
2026-05-05 23:49 0.91270 -78.63379 32930 ft 418 kts 169°
2026-05-05 23:50 0.88389 -78.63006 32597 ft 415 kts 169°
2026-05-05 23:50 0.85541 -78.62637 32225 ft 412 kts 169°
2026-05-05 23:50 0.82700 -78.62268 31856 ft 409 kts 169°
2026-05-05 23:50 0.79894 -78.61904 31491 ft 406 kts 169°
2026-05-05 23:51 0.77094 -78.61541 31120 ft 404 kts 169°
2026-05-05 23:51 0.74311 -78.61180 30801 ft 402 kts 169°
2026-05-05 23:51 0.71552 -78.60822 30437 ft 400 kts 169°
2026-05-05 23:51 0.68786 -78.60464 30034 ft 398 kts 169°
2026-05-05 23:52 0.66052 -78.60109 29632 ft 395 kts 169°
2026-05-05 23:52 0.63334 -78.59757 29238 ft 392 kts 169°
2026-05-05 23:52 0.60671 -78.59412 28857 ft 389 kts 169°
2026-05-05 23:52 0.57995 -78.59068 28510 ft 386 kts 169°
2026-05-05 23:53 0.55346 -78.58723 28135 ft 382 kts 169°
2026-05-05 23:53 0.52721 -78.58380 27760 ft 379 kts 169°
2026-05-05 23:53 0.50118 -78.58042 27415 ft 376 kts 169°
2026-05-05 23:53 0.47523 -78.57707 26958 ft 377 kts 169°
2026-05-05 23:54 0.44929 -78.57372 26573 ft 376 kts 169°
2026-05-05 23:54 0.42367 -78.57043 26221 ft 374 kts 169°
2026-05-05 23:54 0.39788 -78.56712 25864 ft 373 kts 170°
2026-05-05 23:54 0.37215 -78.56381 25479 ft 372 kts 170°
2026-05-05 23:55 0.34655 -78.56051 25117 ft 370 kts 170°
2026-05-05 23:55 0.32102 -78.55723 24754 ft 370 kts 170°
2026-05-05 23:55 0.29550 -78.55395 24398 ft 369 kts 170°
2026-05-05 23:55 0.27000 -78.55067 24025 ft 368 kts 170°
2026-05-05 23:56 0.24465 -78.54741 23650 ft 367 kts 170°
2026-05-05 23:56 0.21934 -78.54414 23240 ft 366 kts 170°
2026-05-05 23:56 0.19417 -78.54090 22870 ft 363 kts 170°
2026-05-05 23:56 0.16921 -78.53770 22509 ft 360 kts 170°
2026-05-05 23:57 0.14449 -78.53452 22167 ft 357 kts 171°
2026-05-05 23:57 0.11994 -78.53135 21826 ft 354 kts 170°
2026-05-05 23:57 0.09554 -78.52820 21477 ft 352 kts 170°
2026-05-05 23:57 0.07132 -78.52508 21130 ft 350 kts 170°
2026-05-05 23:58 0.04748 -78.52201 20800 ft 349 kts 170°
2026-05-05 23:58 0.02317 -78.51888 20449 ft 348 kts 170°
2026-05-05 23:58 -0.00047 -78.51584 20113 ft 346 kts 170°
2026-05-05 23:58 -0.02434 -78.51276 19779 ft 345 kts 170°
2026-05-05 23:59 -0.04812 -78.50982 19430 ft 344 kts 172°
2026-05-05 23:59 -0.07184 -78.50740 19106 ft 342 kts 172°
2026-05-05 23:59 -0.09553 -78.50508 18753 ft 341 kts 172°
2026-05-05 23:59 -0.11915 -78.50275 18394 ft 341 kts 172°
2026-05-06 00:00 -0.14247 -78.50043 18192 ft 334 kts 173°
2026-05-06 00:00 -0.16554 -78.49847 17870 ft 332 kts 173°
2026-05-06 00:00 -0.18850 -78.49669 17577 ft 328 kts 173°
2026-05-06 00:00 -0.21111 -78.49497 17289 ft 325 kts 173°
2026-05-06 00:01 -0.23354 -78.49325 17011 ft 321 kts 174°
2026-05-06 00:01 -0.25574 -78.49151 16730 ft 319 kts 173°
2026-05-06 00:01 -0.27780 -78.48977 16448 ft 316 kts 173°
2026-05-06 00:01 -0.29966 -78.48804 16195 ft 313 kts 173°
2026-05-06 00:02 -0.32125 -78.48633 15923 ft 311 kts 173°
2026-05-06 00:02 -0.34274 -78.48463 15652 ft 308 kts 174°
2026-05-06 00:02 -0.36388 -78.48262 15379 ft 304 kts 167°
2026-05-06 00:02 -0.38320 -78.47504 15114 ft 297 kts 146°
2026-05-06 00:03 -0.39903 -78.46231 14732 ft 297 kts 134°
2026-05-06 00:03 -0.41285 -78.44693 14393 ft 297 kts 128°
2026-05-06 00:03 -0.42428 -78.42948 13976 ft 298 kts 109°
2026-05-06 00:03 -0.42576 -78.40947 13633 ft 295 kts 77°
2026-05-06 00:04 -0.41609 -78.39203 13364 ft 286 kts 42°
2026-05-06 00:04 -0.39900 -78.38269 13088 ft 281 kts 17°
2026-05-06 00:04 -0.38013 -78.37788 12712 ft 277 kts 15°
2026-05-06 00:04 -0.36180 -78.37233 12301 ft 272 kts 20°
2026-05-06 00:05 -0.32749 -78.35839 11610 ft 259 kts 24°
2026-05-06 00:05 -0.31123 -78.35115 11329 ft 252 kts 25°
2026-05-06 00:05 -0.29469 -78.34600 11029 ft 250 kts
2026-05-06 00:06 -0.27747 -78.34710 10750 ft 247 kts 355°
2026-05-06 00:06 -0.26041 -78.34852 10416 ft 241 kts 357°
2026-05-06 00:06 -0.24419 -78.34931 10125 ft 226 kts 358°
2026-05-06 00:06 -0.22902 -78.34992 9792 ft 211 kts 359°
2026-05-06 00:07 -0.21472 -78.35052 9497 ft 200 kts 358°
2026-05-06 00:07 -0.20115 -78.35111 9230 ft 189 kts 358°
2026-05-06 00:07 -0.18876 -78.35165 8986 ft 169 kts 358°
2026-05-06 00:07 -0.17756 -78.35212 8709 ft 155 kts 359°
2026-05-06 00:08 -0.16728 -78.35274 8484 ft 146 kts
2026-05-06 00:08 -0.15712 -78.35305 8311 ft 158 kts 358°
2026-05-06 00:08 -0.14681 -78.35354 8096 ft 141 kts
2026-05-06 00:08 -0.13729 -78.35389 7900 ft 129 kts 359°
2026-05-06 00:09 -0.12947 -78.35421 7873 ft 94 kts 358°
2026-05-06 00:09 -0.12440 -78.35444 7844 ft 56 kts 356°
2026-05-06 00:09 -0.12066 -78.35461 7832 ft 52 kts 358°
2026-05-06 00:09 -0.11791 -78.35484 7822 ft 25 kts 335°
2026-05-06 00:10 -0.11691 -78.35538 7822 ft 14 kts 332°
2026-05-06 00:10 -0.11619 -78.35586 7821 ft 12 kts 306°
2026-05-06 00:10 -0.11642 -78.35640 7821 ft 9 kts 199°
2026-05-06 00:10 -0.11728 -78.35640 7823 ft 16 kts 178°
2026-05-06 00:11 -0.11839 -78.35636 7826 ft 16 kts 178°
2026-05-06 00:11 -0.11947 -78.35632 7828 ft 15 kts 178°
2026-05-06 00:11 -0.12050 -78.35628 7832 ft 15 kts 178°
2026-05-06 00:11 -0.12149 -78.35624 7837 ft 14 kts 178°
2026-05-06 00:12 -0.12241 -78.35620 7838 ft 13 kts 177°
2026-05-06 00:12 -0.12321 -78.35620 7842 ft 10 kts 192°
2026-05-06 00:12 -0.12357 -78.35669 7841 ft 9 kts 263°
2026-05-06 00:12 -0.12361 -78.35735 7838 ft 10 kts 267°
2026-05-06 00:13 -0.12365 -78.35803 7841 ft 12 kts 258°
2026-05-06 00:13 -0.12417 -78.35840 7841 ft 12 kts 184°
2026-05-06 00:13 -0.12484 -78.35844 7841 ft 5 kts 219°
2026-05-06 00:13 -0.12494 -78.35876 7840 ft 5 kts 249°
2026-05-06 00:14 -0.12499 -78.35899 7840 ft 2 kts 265°
2026-05-06 00:14 -0.12499 -78.35912 7837 ft 1 kts 266°
2026-05-06 00:14 -0.12500 -78.35920 7839 ft 1 kts 266°
2026-05-06 00:14 -0.12500 -78.35928 7835 ft 0 kts 266°
2026-05-06 00:15 -0.12500 -78.35927 7835 ft 0 kts 266°